カタログに戻る

CZ-4 DEB

運用中SSO
NORAD 20798·DEBRIS·🇨🇳 China

打ち上げ Sep 3, 1990 から Taiyuan Satellite Launch Center

Loading…

次のパス (今後24時間)

TLE

最新Source: Space-Track

元期: Sep 14, 2026, 09:13 UTC

1 20798U 90081H   26257.38429501  .00000543  00000-0  26441-3 0  9990
2 20798  98.7784 245.2631 0009885  55.1088 305.1018 14.22260350857374

AllMySatでCZ-4 DEBをリアルタイム追跡

Download on the App Store